TOURFACTS.DK  
Stats and Facts from Tour de France.

Tour de France 2018 starts in 202 days
  Riders   Stages   Teams   Summits   Yearly  


 
Search by year

 2017 - St. 21:  14824 starters.
  5132 different riders.
  635 teams.
  2232 stages.
  454 restdays.
  439589.60 km.
  5653 abandonnees.


Top 3
Christopher Froome86:20:55
Rigoberto Uran86:21:49
Romain Bardet86:23:15
Warren Barguil169 pt.
Primoz Roglic80 pt.
Thomas De Gendt64 pt.
Michael Matthews359 pt.
André Greipel234 pt.
Edvald Boasson Hagen220 pt.
Simon Yates86:27:09
Louis Meintjes86:29:15
Emanuel Buchmann86:54:16
Facts from Tour de France 2013
  |   Stages.  |   Stage winners.  |   Days in yellow  |   Average speed.  |   Route.  |   Teams.  |   All riders.  |   Rookies.  |   Withdrawls.  |  

  |   GC.  |   Polka  |   Green  |   White  |   Summits. (In tour)  |   Summits. (Points)  |   Miscellaneous.  |  

Stage 4 on 02 - 07 - 2013
         Owning:    Jan Bakelants    
Pick a stage:  1 2 3 4 5 6 7 8 9 10 11 12 13 14 15 16 17 18 19 20 21
  NiceNice | Dist: 25.00 km.

Average speed for all riders in stage:  56,441 km./hr.
    Place:Name:Team:Time:Km/h:
AUSSimon GerransAUSOrica - GreenEDGE00:25:56  +  00:00:00=57,841 
SUIMichael AlbasiniAUSOrica - GreenEDGE00:25:56  +  00:00:00=57,841 
AUSSimon ClarkeAUSOrica - GreenEDGE00:25:56  +  00:00:00=57,841 
4 AUSMatthew GossAUSOrica - GreenEDGE00:25:56  +  00:00:00=57,841 
5 RSADaryl ImpeyAUSOrica - GreenEDGE00:25:56  +  00:00:00=57,841 
6 AUSBrett LancasterAUSOrica - GreenEDGE00:25:56  +  00:00:00=57,841 
7 AUSCameron MeyerAUSOrica - GreenEDGE00:25:56  +  00:00:00=57,841 
8 AUSStuart O'GradyAUSOrica - GreenEDGE00:25:56  +  00:00:00=57,841 
9 CANSvein TuftAUSOrica - GreenEDGE00:25:56  +  00:00:00=57,841 
10 IOMMark CavendishBELOmega Pharma – Quick Step00:25:57  +  00:00:01=57,803 
11 FRASylvain ChavanelBELOmega Pharma – Quick Step00:25:57  +  00:00:01=57,803 
12 POLMichal KwiatkowskiBELOmega Pharma – Quick Step00:25:57  +  00:00:01=57,803 
13 GERTony MartinBELOmega Pharma – Quick Step00:25:57  +  00:00:01=57,803 
14 FRAJérôme PineauBELOmega Pharma – Quick Step00:25:57  +  00:00:01=57,803 
15 BELGert SteegmansBELOmega Pharma – Quick Step00:25:57  +  00:00:01=57,803 
16 NEDNiki TerpstraBELOmega Pharma – Quick Step00:25:57  +  00:00:01=57,803 
17 ITAMatteo TrentinBELOmega Pharma – Quick Step00:25:57  +  00:00:01=57,803 
18 SVKPeter VelitsBELOmega Pharma – Quick Step00:25:57  +  00:00:01=57,803 
19 KENChristopher FroomeGBRSky Procycling00:25:59  +  00:00:03=57,729 
20 NOREdvald Boasson HagenGBRSky Procycling00:25:59  +  00:00:03=57,729 
21 IOMPeter KennaughGBRSky Procycling00:25:59  +  00:00:03=57,729 
22 BLRVasil KiryienkaGBRSky Procycling00:25:59  +  00:00:03=57,729 
23 ESPDavid LopezGBRSky Procycling00:25:59  +  00:00:03=57,729 
24 AUSRichie PorteGBRSky Procycling00:25:59  +  00:00:03=57,729 
25 BLRKanstantin SivtsovGBRSky Procycling00:25:59  +  00:00:03=57,729 
26 ENGIan StannardGBRSky Procycling00:25:59  +  00:00:03=57,729 
27 WALGeraint ThomasGBRSky Procycling00:25:59  +  00:00:03=57,729 
28 ESPAlberto ContadorDNKTeam Saxo-Tinkoff00:26:05  +  00:00:09=57,508 
29 ITADaniele BennatiDNKTeam Saxo-Tinkoff00:26:05  +  00:00:09=57,508 
30 ESPJesus  HernandezDNKTeam Saxo-Tinkoff00:26:05  +  00:00:09=57,508 
31 CZERoman KreuzigerDNKTeam Saxo-Tinkoff00:26:05  +  00:00:09=57,508 
32 ESPBenjamin NovalDNKTeam Saxo-Tinkoff00:26:05  +  00:00:09=57,508 
33 PORSergio PaulinhoDNKTeam Saxo-Tinkoff00:26:05  +  00:00:09=57,508 
34 FRANicolas RocheDNKTeam Saxo-Tinkoff00:26:05  +  00:00:09=57,508 
35 AUSMichael RogersDNKTeam Saxo-Tinkoff00:26:05  +  00:00:09=57,508 
36 ITAMatteo TosattoDNKTeam Saxo-Tinkoff00:26:05  +  00:00:09=57,508 
37 BELJurgen Van Den BroeckBELLotto-Belisol Team00:26:13  +  00:00:17=57,216 
38 DENLars BakBELLotto-Belisol Team00:26:13  +  00:00:17=57,216 
39 BELBart De ClercqBELLotto-Belisol Team00:26:13  +  00:00:17=57,216 
40 GERAndré GreipelBELLotto-Belisol Team00:26:13  +  00:00:17=57,216 
41 AUSAdam HansenBELLotto-Belisol Team00:26:13  +  00:00:17=57,216 
42 NZLGregory HendersonBELLotto-Belisol Team00:26:13  +  00:00:17=57,216 
43 BELJürgen RoelandtsBELLotto-Belisol Team00:26:13  +  00:00:17=57,216 
44 GERMarcel SiebergBELLotto-Belisol Team00:26:13  +  00:00:17=57,216 
45 BELFrederik WillemsBELLotto-Belisol Team00:26:13  +  00:00:17=57,216 
46 CANRyder HesjedalUSAGarmin Sharp00:26:13  +  00:00:17=57,216 
47 NZLJack BauerUSAGarmin Sharp00:26:13  +  00:00:17=57,216 
48 USATom DanielsonUSAGarmin Sharp00:26:13  +  00:00:17=57,216 
49 AUSRohan DennisUSAGarmin Sharp00:26:13  +  00:00:17=57,216 
50 ENGDaniel MartinUSAGarmin Sharp00:26:13  +  00:00:17=57,216 
51 MLTDavid MillarUSAGarmin Sharp00:26:13  +  00:00:17=57,216 
52 URSRamunas NavardauskasUSAGarmin Sharp00:26:13  +  00:00:17=57,216 
53 USAAndrew TalanskyUSAGarmin Sharp00:26:13  +  00:00:17=57,216 
54 USAChristian VandeveldeUSAGarmin Sharp00:26:13  +  00:00:17=57,216 
55 ESPAlejandro ValverdeESPMovistar Team00:26:16  +  00:00:20=57,107 
56 CRCAndrey AmadorESPMovistar Team00:26:16  +  00:00:20=57,107 
57 ESPJonathan CastroviejoESPMovistar Team00:26:16  +  00:00:20=57,107 
58 PORRui CostaESPMovistar Team00:26:16  +  00:00:20=57,107 
59 ESPImanol ErvitiESPMovistar Team00:26:16  +  00:00:20=57,107 
60 ESPJosé Ivan GutierrezESPMovistar Team00:26:16  +  00:00:20=57,107 
61 ESPRubén PlazaESPMovistar Team00:26:16  +  00:00:20=57,107 
62 COLNairo QuintanaESPMovistar Team00:26:16  +  00:00:20=57,107 
63 ESPJosé Joaquin RojasESPMovistar Team00:26:16  +  00:00:20=57,107 
64 ITADamiano CunegoITALampre-Merida00:26:21  +  00:00:25=56,926 
65 ITAMatteo BonoITALampre-Merida00:26:21  +  00:00:25=56,926 
66 ITADavide CimolaiITALampre-Merida00:26:21  +  00:00:25=56,926 
67 ITAElia FavilliITALampre-Merida00:26:21  +  00:00:25=56,926 
68 ITARoberto FerrariITALampre-Merida00:26:21  +  00:00:25=56,926 
69 ITAAdriano MaloriITALampre-Merida00:26:21  +  00:00:25=56,926 
70 ITAManuele MoriITALampre-Merida00:26:21  +  00:00:25=56,926 
71 POLPrzemyslaw NiemiecITALampre-Merida00:26:21  +  00:00:25=56,926 
72 COLJosé SerpaITALampre-Merida00:26:21  +  00:00:25=56,926 
73 AUSCadel EvansUSABMC Racing Team00:26:22  +  00:00:26=56,890 
74 USABrent BookwalterUSABMC Racing Team00:26:22  +  00:00:26=56,890 
75 GERMarcus BurghardtUSABMC Racing Team00:26:22  +  00:00:26=56,890 
76 BELPhilippe GilbertUSABMC Racing Team00:26:22  +  00:00:26=56,890 
77 FRAAmaël MoinardUSABMC Racing Team00:26:22  +  00:00:26=56,890 
78 SUISteve MorabitoUSABMC Racing Team00:26:22  +  00:00:26=56,890 
79 ITAManuel QuinziatoUSABMC Racing Team00:26:22  +  00:00:26=56,890 
80 SUIMichael SchärUSABMC Racing Team00:26:22  +  00:00:26=56,890 
81 USATejay Van GarderenUSABMC Racing Team00:26:22  +  00:00:26=56,890 
82 ESPJoaquim RodriguezRUSTeam Katusha00:26:24  +  00:00:28=56,818 
83 RUSPavel BruttRUSTeam Katusha00:26:24  +  00:00:28=56,818 
84 NORAlexander KristoffRUSTeam Katusha00:26:24  +  00:00:28=56,818 
85 BLRAliaksandr KuchynskiRUSTeam Katusha00:26:24  +  00:00:28=56,818 
86 ESPAlberto LosadaRUSTeam Katusha00:26:24  +  00:00:28=56,818 
87 ESPDaniel MorenoRUSTeam Katusha00:26:24  +  00:00:28=56,818 
88 URSGatis SmukulisRUSTeam Katusha00:26:24  +  00:00:28=56,818 
89 RUSYury TrofimovRUSTeam Katusha00:26:24  +  00:00:28=56,818 
90 RUSEduard VorganovRUSTeam Katusha00:26:24  +  00:00:28=56,818 
91 LUXAndy SchleckLUXRadioShack Leopard00:26:25  +  00:00:29=56,782 
92 BELJan BakelantsLUXRadioShack Leopard00:26:25  +  00:00:29=56,782 
93 LUXLaurent DidierLUXRadioShack Leopard00:26:25  +  00:00:29=56,782 
94 FRATony GallopinLUXRadioShack Leopard00:26:25  +  00:00:29=56,782 
95 ESPMarkel IrizarLUXRadioShack Leopard00:26:25  +  00:00:29=56,782 
96 GERAndréas KlödenLUXRadioShack Leopard00:26:25  +  00:00:29=56,782 
97 BELMaxime MonfortLUXRadioShack Leopard00:26:25  +  00:00:29=56,782 
98 GERJens VoigtLUXRadioShack Leopard00:26:25  +  00:00:29=56,782 
99 ESPHaimar ZubeldiaLUXRadioShack Leopard00:26:25  +  00:00:29=56,782 
100 NEDWout PoelsNLDVacansoleil - DCM00:26:29  +  00:00:33=56,639 
101 BELKris BoeckmansNLDVacansoleil - DCM00:26:29  +  00:00:33=56,639 
102 BELThomas De GendtNLDVacansoleil - DCM00:26:29  +  00:00:33=56,639 
103 ARGJuan Antonio FlechaNLDVacansoleil - DCM00:26:29  +  00:00:33=56,639 
104 NEDJohnny HoogerlandNLDVacansoleil - DCM00:26:29  +  00:00:33=56,639 
105 UZBSergey LagutinNLDVacansoleil - DCM00:26:29  +  00:00:33=56,639 
106 NEDBoy van PoppelNLDVacansoleil - DCM00:26:29  +  00:00:33=56,639 
107 NEDDanny van PoppelNLDVacansoleil - DCM00:26:29  +  00:00:33=56,639 
108 NEDLieuwe WestraNLDVacansoleil - DCM00:26:29  +  00:00:33=56,639 
109 SVKPeter SaganITACannondale Pro Cycling00:26:30  +  00:00:34=56,604 
110 POLMaciej BodnarITACannondale Pro Cycling00:26:30  +  00:00:34=56,604 
111 ITAAlessandro De MarchiITACannondale Pro Cycling00:26:30  +  00:00:34=56,604 
112 SLOKristjan KorenITACannondale Pro Cycling00:26:30  +  00:00:34=56,604 
113 ITAAlan MarangoniITACannondale Pro Cycling00:26:30  +  00:00:34=56,604 
114 ITAMoreno MoserITACannondale Pro Cycling00:26:30  +  00:00:34=56,604 
115 ITAFabio SabatiniITACannondale Pro Cycling00:26:30  +  00:00:34=56,604 
116 DENBrian VandborgITACannondale Pro Cycling00:26:30  +  00:00:34=56,604 
117 NEDLars BoomNLDBelkin Pro Cycling00:26:33  +  00:00:37=56,497 
118 NEDRobert GesinkNLDBelkin Pro Cycling00:26:33  +  00:00:37=56,497 
119 NEDTom LeezerNLDBelkin Pro Cycling00:26:33  +  00:00:37=56,497 
120 NEDBauke MollemaNLDBelkin Pro Cycling00:26:33  +  00:00:37=56,497 
121 NORLars Petter NordhaugNLDBelkin Pro Cycling00:26:33  +  00:00:37=56,497 
122 NEDBram TankinkNLDBelkin Pro Cycling00:26:33  +  00:00:37=56,497 
123 NEDLaurens ten DamNLDBelkin Pro Cycling00:26:33  +  00:00:37=56,497 
124 BELSep VanmarckeNLDBelkin Pro Cycling00:26:33  +  00:00:37=56,497 
125 BELMaarten WynantsNLDBelkin Pro Cycling00:26:33  +  00:00:37=56,497 
126 FRAThibaut PinotFRAFDJ.fr00:26:38  +  00:00:42=56,320 
127 FRAWilliam BonnetFRAFDJ.fr00:26:38  +  00:00:42=56,320 
128 FRANacer BouhanniFRAFDJ.fr00:26:38  +  00:00:42=56,320 
129 FRAPierrick FédrigoFRAFDJ.fr00:26:38  +  00:00:42=56,320 
130 BRAMurilo Antonio FischerFRAFDJ.fr00:26:38  +  00:00:42=56,320 
131 FRAAlexandre GeniezFRAFDJ.fr00:26:38  +  00:00:42=56,320 
132 FRAArnold JeannessonFRAFDJ.fr00:26:38  +  00:00:42=56,320 
133 FRAJérémy RoyFRAFDJ.fr00:26:38  +  00:00:42=56,320 
134 FRAArthur VichotFRAFDJ.fr00:26:38  +  00:00:42=56,320 
135 SLOJanez BrajkovicKAZAstana Pro Team00:26:52  +  00:00:56=55,831 
136 KAZAssan BazayevKAZAstana Pro Team00:26:52  +  00:00:56=55,831 
137 SUIJakob FuglsangKAZAstana Pro Team00:26:52  +  00:00:56=55,831 
138 ITAEnrico GasparottoKAZAstana Pro Team00:26:52  +  00:00:56=55,831 
139 ITAFrancesco GavazziKAZAstana Pro Team00:26:52  +  00:00:56=55,831 
140 SWEFredrik KessiakoffKAZAstana Pro Team00:26:52  +  00:00:56=55,831 
141 KAZAlexey LutsenkoKAZAstana Pro Team00:26:52  +  00:00:56=55,831 
142 KAZDmitriy MuravyevKAZAstana Pro Team00:26:52  +  00:00:56=55,831 
143 FRAJean-Christophe PeraudFRAAg2r La Mondiale00:27:00  +  00:01:04=55,556 
144 FRARomain BardetFRAAg2r La Mondiale00:27:00  +  00:01:04=55,556 
145 FRAMaxime BouetFRAAg2r La Mondiale00:27:00  +  00:01:04=55,556 
146 FRASamuel DumoulinFRAAg2r La Mondiale00:27:00  +  00:01:04=55,556 
147 FRAHubert DupontFRAAg2r La Mondiale00:27:00  +  00:01:04=55,556 
148 FRAJohn GadretFRAAg2r La Mondiale00:27:00  +  00:01:04=55,556 
149 FRABlel KadriFRAAg2r La Mondiale00:27:00  +  00:01:04=55,556 
150 FRASébastien MinardFRAAg2r La Mondiale00:27:00  +  00:01:04=55,556 
151 FRAChristophe RiblonFRAAg2r La Mondiale00:27:00  +  00:01:04=55,556 
152 FRABrice FeilluFRASojasun00:27:06  +  00:01:10=55,351 
153 FRAAnthony DelaplaceFRASojasun00:27:06  +  00:01:10=55,351 
154 FRAJulien El FarèsFRASojasun00:27:06  +  00:01:10=55,351 
155 FRAJonathan HivertFRASojasun00:27:06  +  00:01:10=55,351 
156 FRACyril LemoineFRASojasun00:27:06  +  00:01:10=55,351 
157 FRAJean-Marc MarinoFRASojasun00:27:06  +  00:01:10=55,351 
158 FRAMaxime MederelFRASojasun00:27:06  +  00:01:10=55,351 
159 FRAJulien SimonFRASojasun00:27:06  +  00:01:10=55,351 
160 FRAAlexis VuillermozFRASojasun00:27:06  +  00:01:10=55,351 
161 FRAPierre RollandFRATeam Europcar00:27:09  +  00:01:13=55,249 
162 JPNYukiya ArashiroFRATeam Europcar00:27:09  +  00:01:13=55,249 
163 FRAJérôme CousinFRATeam Europcar00:27:09  +  00:01:13=55,249 
164 FRACyril GautierFRATeam Europcar00:27:09  +  00:01:13=55,249 
165 FRAYohann GèneFRATeam Europcar00:27:09  +  00:01:13=55,249 
166 ITADavide MalacarneFRATeam Europcar00:27:09  +  00:01:13=55,249 
167 FRAKévin RezaFRATeam Europcar00:27:09  +  00:01:13=55,249 
168 CANDavid VeilleuxFRATeam Europcar00:27:09  +  00:01:13=55,249 
169 FRAThomas VoecklerFRATeam Europcar00:27:09  +  00:01:13=55,249 
170 URSRein TaaramäeFRACofidis – Solutions Crédits00:27:16  +  00:01:20=55,012 
171 FRAJérôme CoppelFRACofidis – Solutions Crédits00:27:16  +  00:01:20=55,012 
172 ESPEgoitz GarciaFRACofidis – Solutions Crédits00:27:16  +  00:01:20=55,012 
173 FRAChristophe Le MevelFRACofidis – Solutions Crédits00:27:16  +  00:01:20=55,012 
174 FRAGuillaume LevarletFRACofidis – Solutions Crédits00:27:16  +  00:01:20=55,012 
175 ESPLuis Angel MateFRACofidis – Solutions Crédits00:27:16  +  00:01:20=55,012 
176 FRARudy MolardFRACofidis – Solutions Crédits00:27:16  +  00:01:20=55,012 
177 ESPDaniel NavarroFRACofidis – Solutions Crédits00:27:16  +  00:01:20=55,012 
178 ESPIgor AntonESPEuskaltel - Euskadi00:27:20  +  00:01:24=54,878 
179 ESPMikel AstarlozaESPEuskaltel - Euskadi00:27:20  +  00:01:24=54,878 
180 ESPGorka Izaguirre InsaustiESPEuskaltel - Euskadi00:27:20  +  00:01:24=54,878 
181 ESPJon Izaguirre InsaustiESPEuskaltel - Euskadi00:27:20  +  00:01:24=54,878 
182 ESPJuan LobatoESPEuskaltel - Euskadi00:27:20  +  00:01:24=54,878 
183 ESPMikel NieveESPEuskaltel - Euskadi00:27:20  +  00:01:24=54,878 
184 ESPJuan José OrozESPEuskaltel - Euskadi00:27:20  +  00:01:24=54,878 
185 ESPRuben PerezESPEuskaltel - Euskadi00:27:20  +  00:01:24=54,878 
186 FRARomain SicardESPEuskaltel - Euskadi00:27:20  +  00:01:24=54,878 
187 GERJohn DegenkolbNLDArgos–Shimano00:27:43  +  00:01:47=54,119 
188 NEDRoy CurversNLDArgos–Shimano00:27:43  +  00:01:47=54,119 
189 NEDKoen De KortNLDArgos–Shimano00:27:43  +  00:01:47=54,119 
190 NEDTom DumoulinNLDArgos–Shimano00:27:43  +  00:01:47=54,119 
191 GERJohannes FröhlingerNLDArgos–Shimano00:27:43  +  00:01:47=54,119 
192 GERSimon GeschkeNLDArgos–Shimano00:27:43  +  00:01:47=54,119 
193 GERMarcel KittelNLDArgos–Shimano00:27:43  +  00:01:47=54,119 
194 NEDAlbert TimmerNLDArgos–Shimano00:27:43  +  00:01:47=54,119 
195 NEDTom VeelersNLDArgos–Shimano00:27:43  +  00:01:47=54,119 

Withdrawls: 1
 
Rider
Team
Reason
14  USAEdward KingITACannondale Pro CyclingExceeded time limit

Todays birthdays.

1911  Pierre Janvier
1919  Miguel Gual
1925  Jacques Marinelli
1943  Domingo Perurena
1955  Antonio Londoño
1969  José Castelblanco
1972  Bingen Fernandez
1975  Thierry Loder